[[{"header":{"parameterUnit":"m.s-1","parameterCategory":1,"la1":30.2991,"la2":30.254,"lo1":-89.0895,"lo2":-89.0444,"dy":0.0017,"dx":0.0017,"nx":28,"ny":28,"refTime":"2023-09-03T21:00:00:Z","depth":0,"parameterNumber":2,"parameterNumberName":"U-component_of_WINDS"},"data":[0,0,0,0,0,0,0,0,0,0,0,0,0,0,0,0,0,0,0,0,0,0,0,0,0,0,0,0,0,0,0,0,0,0,0,0,0,0,0,0,0,0,0,0,0,0,0,0,0,0,0,0,0,0,0,0,0,0,-3.8427,-3.8427,0,-3.8481,-3.8481,-3.8482,-3.8438,-3.8436,-3.8434,-3.8432,-3.8485,-3.8488,-3.8492,0,0,0,0,0,0,0,0,0,0,0,0,0,-3.8283,-3.8286,-3.8426,-3.8427,-3.8428,-3.848,-3.8481,-3.8482,-3.8438,-3.8436,-3.8434,-3.8432,-3.8484,-3.8488,-3.8492,0,0,0,0,0,0,0,0,0,0,0,0,0,-3.8342,-3.8287,-3.8426,-3.8412,-3.8412,-3.848,-3.8481,-3.8482,-3.8439,-3.8436,-3.8433,-3.8431,-3.8483,-3.8488,-3.8492,-3.8577,0,0,-3.8507,-3.8509,0,0,0,0,0,0,0,0,-3.8339,-3.8347,-3.8414,-3.8414,-3.8413,-3.845,-3.845,-3.8514,-3.8439,-3.8428,-3.8432,-3.8429,-3.8476,-3.8481,-3.8497,-3.8579,-3.8581,-3.8507,-3.851,-3.8512,-3.8513,0,0,0,0,0,0,0,-3.8335,-3.8345,-3.8448,-3.8415,-3.8414,-3.8403,-3.8408,-3.8462,-3.8467,-3.8429,-3.8426,-3.8433,-3.8475,-3.8492,-3.8498,-3.8582,-3.8507,-3.8511,-3.8514,-3.8516,-3.8735,-3.8738,0,0,0,0,0,0,-3.8332,-3.8342,-3.8446,-3.8449,-3.8368,-3.8408,-3.8413,-3.8441,-3.8466,-3.8467,-3.8435,-3.8431,-3.8486,-3.8492,-3.8499,-3.8598,-3.8512,-3.8516,-3.8519,-3.8732,-3.8736,-3.8739,0,0,0,0,0,0,-3.8329,-3.8342,-3.8444,-3.8395,-3.8407,-3.8413,-3.8444,-3.8443,-3.8461,-3.8471,-3.8471,-3.8453,-3.8484,-3.8493,-3.8558,-3.86,-3.8518,-3.8523,-3.8729,-3.8733,-3.8737,-3.8798,0,0,0,0,0,0,-3.8326,-3.8341,-3.8374,-3.8396,-3.841,-3.8502,-3.8446,-3.8446,-3.8469,-3.8464,-3.8487,-3.8488,-3.8482,-3.8551,-3.8562,-3.8605,-3.8526,-3.8725,-3.8731,-3.8736,-3.8792,-3.8804,-3.8814,0,0,0,0,0,-3.8321,-3.8389,-3.8376,-3.8389,-3.8451,-3.8505,-3.8512,-3.8505,-3.8473,-3.8505,-3.8512,-3.8488,-3.8594,-3.8558,-3.857,-3.8615,-3.8722,-3.8729,-3.8735,-3.8787,-3.8802,-3.8814,0,0,0,0,0,0,-3.8371,-3.8391,-3.8377,-3.8455,-3.8478,-3.8497,-3.8538,-3.852,-3.8553,-3.8546,-3.8535,-3.854,-3.8608,-3.8618,-3.8578,-3.8697,-3.8653,-3.8662,-3.8688,-3.8702,-3.8712,-3.8708,-3.853,0,0,0,0,0,-3.8391,-3.8434,-3.8449,-3.8516,-3.8529,-3.8532,-3.8555,-3.8547,-3.857,-3.858,-3.8591,-3.8614,-3.8652,-3.8678,-3.8714,-3.8794,-3.8798,-3.8831,-3.8842,-3.8851,-3.8859,-3.89,-3.8915,-3.8761,-3.8761,-3.8761,0,0,-3.8433,-3.845,-3.8477,-3.8527,-3.8544,-3.8587,-3.854,-3.8588,-3.862,-3.8587,-3.8648,-3.8658,-3.8683,-3.8755,-3.8788,-3.8766,-3.8902,-3.886,-3.8867,-3.887,-3.8909,-3.8923,-3.8936,-3.8766,-3.8765,-3.8764,0,0,-3.8532,-3.8549,-3.8606,-3.8625,-3.8652,-3.8653,-3.8667,-3.8688,-3.8693,-3.8755,-3.8731,-3.8768,-3.8835,-3.8854,-3.8872,-3.8977,-3.8956,-3.899,-3.9046,-3.9087,-3.9099,-3.9109,-3.9145,-3.9159,-3.8998,-3.8998,-3.8998,0,-3.858,-3.8645,-3.8637,-3.8687,-3.8709,-3.8682,-3.8739,-3.8757,-3.8794,-3.881,-3.8785,-3.8868,-3.8883,-3.8958,-3.8984,-3.9001,-3.9015,-3.8986,-3.9098,-3.9109,-3.9118,-3.9152,-3.9166,-3.9002,-3.9001,-3.9001,-3.9001,0,-3.8703,-3.8748,-3.8791,-3.8828,-3.8855,-3.8908,-3.8907,-3.8935,-3.8926,-3.8929,-3.8992,-3.9009,-3.9048,-3.9066,-3.9056,-3.914,-3.9125,-3.91,-3.9054,-3.9137,-3.9168,-3.9182,-3.9007,-3.9006,-3.9005,-3.9004,0,0,-3.8833,-3.8865,-3.8881,-3.8897,-3.8925,-3.8959,-3.9011,-3.9049,-3.9073,-3.91,-3.9142,-3.9199,-3.9175,-3.9196,-3.9189,-3.9225,-3.9305,-3.9195,-3.9195,-3.9213,-3.9397,-3.9414,-3.943,-3.9292,-3.9295,-3.9297,-3.9394,0,-3.8931,-3.9021,-3.9016,-3.91,-3.9141,-3.9116,-3.9161,-3.9183,-3.9188,-3.9223,-3.9228,-3.9268,-3.9235,-3.9247,-3.9282,-3.9288,-3.9342,-3.9281,-3.9329,-3.9331,-3.9322,-3.9446,-3.9465,-3.9556,-3.9406,-3.9408,-3.941,0,-3.9057,-3.9089,-3.9177,-3.9198,-3.9215,-3.9256,-3.929,-3.9324,-3.9348,-3.9349,-3.9372,-3.9359,-3.941,-3.9365,-3.9434,-3.9393,-3.9413,-3.9419,-3.9422,-3.9425,-3.9374,-3.945,-3.9585,-3.9598,-3.943,-3.9428,-3.9427,0,-3.9141,-3.9206,-3.9267,-3.9281,-3.9308,-3.9337,-3.9349,-3.937,-3.9393,-3.9423,-3.9438,-3.9473,-3.9492,-3.9519,-3.9515,-3.9483,-3.9585,-3.9541,-3.9586,-3.9586,-3.9607,-3.9605,-3.9745,-3.9623,-3.9623,-3.9623,-3.9623,0,-3.925,-3.9305,-3.9304,-3.9342,-3.9402,-3.9395,-3.9455,-3.9464,-3.9483,-3.952,-3.9502,-3.9537,-3.9531,-3.9567,-3.9564,-3.9621,-3.963,-3.9631,-3.9629,-3.9632,-3.9632,-3.9643,-3.9636,-3.9627,-3.9626,-3.9625,-3.9624,0,-3.9353,-3.9355,-3.942,-3.944,-3.9446,-3.949,-3.9506,-3.9541,-3.9545,-3.9593,-3.9604,-3.9609,-3.965,-3.965,-3.9696,-3.9694,-3.9763,-3.9756,-3.9755,-3.9753,-3.9798,-3.9793,-3.9948,-3.9967,-3.9835,-3.9837,-3.9838,0,-3.9422,-3.9463,-3.9488,-3.9512,-3.9526,-3.9566,-3.9589,-3.9584,-3.9609,-3.9639,-3.967,-3.9709,-3.974,-3.9806,-3.9814,-3.9849,-3.984,-3.9892,-3.9845,-3.9846,-3.9839,-3.9836,-3.9839,-3.9901,-3.9902,-3.9904,-3.9905,0,-3.9542,-3.9541,-3.9576,-3.9612,-3.964,-3.9668,-3.9693,-3.9714,-3.9711,-3.974,-3.9782,-3.9806,-3.9854,-3.9892,-3.9926,-3.9938,-3.992,-3.992,-3.9932,-3.9933,-3.9931,-3.9931,-3.9778,-3.9915,-3.9914,-3.9914,-3.9913,-3.9913,-3.9629,-3.9664,-3.9687,-3.9726,-3.9745,-3.9769,-3.9802,-3.981,-3.9845,-3.9883,-3.9878,-3.9924,-3.9946,-3.999,-4.0005,-4.004,-4.0021,-4.004,-4.0044,-4.0048,-4.0052,-3.9927,-4.0046,-4.0046,-4.0046,-4.0045,-4.0045,0,-3.9747,-3.976,-3.9797,-3.9833,-3.9863,-3.9846,-3.9873,-3.9899,-3.994,-3.9962,-3.9993,-4.0041,-4.0078,-4.0089,-4.0125,-4.0151,-4.0144,-4.016,-4.0157,-4.016,-4.0067,-4.0052,-4.0165,-4.0165,-4.0165,-4.0165,-4.0165,-4.0165,-3.9812,-3.987,-3.9872,-3.9939,-3.9952,-3.9997,-4.0014,-4.0035,-4.0053,-4.0107,-4.0138,-4.0145,-4.0162,-4.0199,-4.0232,-4.0234,-4.0247,-4.0267,-4.0266,-4.0179,-4.0166,-4.0155,-4.0141,-4.027,-4.027,-4.0355,-4.0356,-4.0356]},{"header":{"parameterUnit":"m.s-1","parameterCategory":1,"la1":30.2991,"la2":30.254,"lo1":-89.0895,"lo2":-89.0444,"dy":0.0017,"dx":0.0017,"nx":28,"ny":28,"refTime":"2023-09-03T21:00:00:Z","depth":0,"parameterNumber":3,"parameterNumberName":"V-component_of_WINDS"},"data":[0,0,0,0,0,0,0,0,0,0,0,0,0,0,0,0,0,0,0,0,0,0,0,0,0,0,0,0,0,0,0,0,0,0,0,0,0,0,0,0,0,0,0,0,0,0,0,0,0,0,0,0,0,0,0,0,0,0,4.4984,4.4985,0,4.5041,4.5042,4.5043,4.4997,4.4995,4.4993,4.4991,4.5046,4.5049,4.5052,0,0,0,0,0,0,0,0,0,0,0,0,0,4.483,4.4833,4.4984,4.4985,4.4985,4.5041,4.5042,4.5043,4.4997,4.4995,4.4993,4.499,4.5045,4.5048,4.5052,0,0,0,0,0,0,0,0,0,0,0,0,0,4.4893,4.4834,4.4984,4.4969,4.4969,4.5041,4.5042,4.5043,4.4998,4.4995,4.4992,4.4989,4.5043,4.5048,4.5053,4.5141,0,0,4.5068,4.507,0,0,0,0,0,0,0,0,4.4889,4.4899,4.4971,4.4971,4.497,4.5009,4.5008,4.5076,4.4999,4.4987,4.4991,4.4988,4.5036,4.5041,4.5058,4.5143,4.5146,4.5068,4.5071,4.5073,4.5075,0,0,0,0,0,0,0,4.4885,4.4896,4.5006,4.4972,4.4971,4.4959,4.4964,4.502,4.5026,4.4987,4.4984,4.4992,4.5035,4.5053,4.5059,4.5147,4.5068,4.5072,4.5075,4.5077,4.5306,4.5309,0,0,0,0,0,0,4.4883,4.4892,4.5005,4.5008,4.4922,4.4964,4.497,4.4999,4.5026,4.5027,4.4994,4.499,4.5046,4.5053,4.506,4.5164,4.5073,4.5078,4.508,4.5302,4.5306,4.531,0,0,0,0,0,0,4.488,4.4893,4.5002,4.495,4.4962,4.497,4.5003,4.5002,4.5021,4.5031,4.5031,4.5013,4.5044,4.5054,4.5121,4.5165,4.508,4.5084,4.5299,4.5304,4.5308,4.5372,0,0,0,0,0,0,4.4875,4.4892,4.4927,4.4951,4.4966,4.5064,4.5005,4.5005,4.503,4.5024,4.5048,4.5049,4.5043,4.5114,4.5126,4.517,4.5088,4.5295,4.5301,4.5307,4.5366,4.5379,4.5389,0,0,0,0,0,4.487,4.4942,4.4929,4.4943,4.5009,4.5066,4.5074,4.5067,4.5034,4.5067,4.5074,4.5049,4.5159,4.5122,4.5134,4.5181,4.5292,4.5299,4.5306,4.5361,4.5376,4.5389,0,0,0,0,0,0,4.4922,4.4945,4.4931,4.5013,4.5038,4.5058,4.5101,4.5083,4.5117,4.511,4.5098,4.5104,4.5174,4.5185,4.5142,4.5267,4.522,4.523,4.5257,4.5272,4.5283,4.5278,4.5092,0,0,0,0,0,4.4943,4.4989,4.5006,4.5077,4.5091,4.5094,4.5118,4.5111,4.5135,4.5145,4.5157,4.5181,4.5221,4.5247,4.5284,4.5368,4.5372,4.5406,4.5418,4.5427,4.5435,4.5479,4.5494,4.5333,4.5333,4.5333,0,0,4.4987,4.5005,4.5034,4.5088,4.5106,4.5152,4.5103,4.5154,4.5187,4.5153,4.5217,4.5227,4.5252,4.5328,4.5362,4.5338,4.5481,4.5436,4.5444,4.5447,4.5487,4.5503,4.5516,4.5338,4.5337,4.5336,0,0,4.5089,4.5109,4.5169,4.5189,4.5219,4.5221,4.5235,4.5259,4.5264,4.5329,4.5303,4.5342,4.5412,4.5431,4.545,4.556,4.5537,4.5573,4.5632,4.5674,4.5687,4.5698,4.5735,4.5749,4.5581,4.5581,4.5582,0,4.5139,4.5209,4.5202,4.5255,4.5279,4.5251,4.5311,4.533,4.537,4.5386,4.536,4.5446,4.5462,4.554,4.5568,4.5585,4.5599,4.5569,4.5686,4.5697,4.5707,4.5743,4.5757,4.5585,4.5585,4.5585,4.5584,0,4.5268,4.5317,4.5362,4.5402,4.5431,4.5487,4.5487,4.5517,4.5507,4.5511,4.5576,4.5594,4.5634,4.5653,4.5643,4.573,4.5715,4.5688,4.564,4.5727,4.576,4.5773,4.5591,4.559,4.5588,4.5587,0,0,4.5403,4.544,4.5456,4.5474,4.5504,4.5541,4.5596,4.5636,4.5661,4.5689,4.5733,4.5793,4.5768,4.579,4.5782,4.5819,4.5903,4.5787,4.5788,4.5806,4.5998,4.6017,4.6033,4.5889,4.5892,4.5894,4.5995,0,4.5506,4.5602,4.5598,4.5687,4.5731,4.5706,4.5753,4.5776,4.5781,4.5818,4.5823,4.5865,4.583,4.5843,4.5879,4.5885,4.5941,4.5878,4.5928,4.593,4.592,4.605,4.607,4.6165,4.6008,4.6011,4.6012,0,4.5638,4.5672,4.5766,4.579,4.5808,4.5851,4.5887,4.5923,4.5948,4.5949,4.5974,4.596,4.6013,4.5966,4.6038,4.5996,4.6016,4.6022,4.6025,4.6028,4.5974,4.6054,4.6195,4.6208,4.6033,4.6031,4.603,0,4.5725,4.5794,4.5859,4.5875,4.5905,4.5935,4.5948,4.5971,4.5995,4.6027,4.6042,4.6079,4.6099,4.6127,4.6123,4.6089,4.6195,4.6148,4.6196,4.6196,4.6217,4.6216,4.6361,4.6235,4.6234,4.6234,4.6234,0,4.5838,4.5896,4.5898,4.5938,4.6002,4.5996,4.6058,4.6068,4.6088,4.6128,4.6109,4.6146,4.614,4.6177,4.6174,4.6233,4.6242,4.6243,4.6241,4.6244,4.6243,4.6255,4.6247,4.6238,4.6237,4.6236,4.6236,0,4.5945,4.5949,4.6018,4.6041,4.6048,4.6093,4.6112,4.6148,4.6153,4.6203,4.6215,4.6221,4.6264,4.6263,4.6311,4.6309,4.6381,4.6373,4.6373,4.637,4.6417,4.6412,4.6573,4.6593,4.6456,4.6457,4.6458,0,4.6016,4.606,4.6088,4.6114,4.613,4.6172,4.6197,4.6193,4.6219,4.6251,4.6284,4.6325,4.6357,4.6426,4.6434,4.647,4.6461,4.6515,4.6466,4.6467,4.6459,4.6456,4.6459,4.6524,4.6526,4.6527,4.6528,0,4.6142,4.6141,4.6179,4.6218,4.6249,4.6278,4.6306,4.6328,4.6326,4.6357,4.6401,4.6426,4.6476,4.6516,4.6551,4.6563,4.6545,4.6544,4.6556,4.6558,4.6556,4.6555,4.6396,4.6539,4.6538,4.6537,4.6537,4.6536,4.6231,4.6269,4.6294,4.6336,4.6357,4.6383,4.6418,4.6427,4.6465,4.6505,4.65,4.6549,4.6572,4.6617,4.6633,4.667,4.665,4.6669,4.6673,4.6677,4.6682,4.6552,4.6676,4.6676,4.6675,4.6675,4.6675,0,4.6354,4.6369,4.6408,4.6447,4.648,4.6463,4.6492,4.652,4.6563,4.6587,4.662,4.667,4.6709,4.672,4.6758,4.6785,4.6777,4.6795,4.6791,4.6794,4.6698,4.6682,4.68,4.68,4.68,4.68,4.68,4.68,4.6421,4.6483,4.6486,4.6557,4.6572,4.662,4.6638,4.6662,4.668,4.6737,4.677,4.6778,4.6796,4.6835,4.6869,4.6872,4.6885,4.6906,4.6904,4.6813,4.6801,4.6789,4.6774,4.6909,4.6909,4.6997,4.6998,4.6998]}]]